EW5239 Weather Reports


Display with metric or nautical units.
time (UTC)temp
F
wind
direction
speed
MPH
gust
MPH
rain 1hr
in
rain 24hr
in
rain mn
in
humidity
%
barometer
mb
20260505121004 81 192 10.0 16.0 0.00 0.00 0.00 21 1005.5
20260505120725 82 184 8.0 9.0 0.00 0.00 0.00 21 1006.9
20260505120504 80 185 9.0 12.0 0.00 0.00 0.00 23 1005.5
20260505120231 82 184 8.0 11.0 0.00 0.00 0.00 18 1006.9
20260505115225 80 205 8.0 11.0 0.00 0.00 0.00 22 1006.9
20260505115004 80 194 9.0 12.0 0.00 0.00 0.00 22 1005.6
20260505114504 79 201 8.0 12.0 0.00 0.00 0.00 23 1005.5
20260505114224 79 186 8.0 14.0 0.00 0.00 0.00 22 1007.1
20260505114004 79 195 9.0 13.0 0.00 0.00 0.00 23 1005.7
20260505113724 79 196 10.0 14.0 0.00 0.00 0.00 19 1007.1
20260505113504 79 186 9.0 13.0 0.00 0.00 0.00 23 1005.8
20260505112724 80 189 10.0 14.0 0.00 0.00 0.00 22 1007.2
20260505112504 80 194 11.0 15.0 0.00 0.00 0.00 23 1005.7
20260505112224 80 182 10.0 14.0 0.00 0.00 0.00 20 1007.4
20260505112004 80 196 10.0 15.0 0.00 0.00 0.00 24 1005.9
20260505111725 80 188 9.0 14.0 0.00 0.00 0.00 23 1007.5
20260505111504 79 177 8.0 10.0 0.00 0.00 0.00 28 1006.0
20260505111226 79 189 8.0 11.0 0.00 0.00 0.00 24 1007.1
20260505111003 79 197 8.0 11.0 0.00 0.00 0.00 28 1005.9
20260505110725 79 203 8.0 11.0 0.00 0.00 0.00 24 1007.6
20260505110504 78 205 9.0 11.0 0.00 0.00 0.00 27 1005.9
20260505110230 79 222 7.0 11.0 0.00 0.00 0.00 24 1007.5
20260505101724 78 223 8.0 11.0 0.00 0.00 0.00 29 1008.0
20260505101504 78 221 7.0 12.0 0.00 0.00 0.00 33 1006.6
20260505101224 78 222 9.0 9.0 0.00 0.00 0.00 29 1008.1
20260505101004 78 220 6.0 6.0 0.00 0.00 0.00 32 1006.7
20260505100725 78 225 9.0 9.0 0.00 0.00 0.00 29 1008.1
20260505100504 78 237 6.0 9.0 0.00 0.00 0.00 33 1006.7
20260505100005 78 256 7.0 10.0 0.00 0.00 0.00 33 1006.8
20260505095504 78 263 7.0 10.0 0.00 0.00 0.00 33 1007.0
20260505095225 78 266 7.0 10.0 0.00 0.00 0.00 28 1008.4
20260505094725 78 243 7.0 11.0 0.00 0.00 0.00 29 1008.4
20260505094504 77 239 7.0 11.0 0.00 0.00 0.00 33 1006.9
20260505094225 78 228 7.0 11.0 0.00 0.00 0.00 29 1008.5
20260505094004 77 233 7.0 11.0 0.00 0.00 0.00 33 1007.1
20260505093725 78 212 8.0 11.0 0.00 0.00 0.00 28 1008.7
20260505093225 78 218 7.0 10.0 0.00 0.00 0.00 29 1008.3
20260505093004 77 208 6.0 10.0 0.00 0.00 0.00 33 1007.2
20260505092725 77 237 7.0 8.0 0.00 0.00 0.00 31 1008.8
20260505092504 77 241 6.0 8.0 0.00 0.00 0.00 34 1007.3
20260505092225 77 254 6.0 8.0 0.00 0.00 0.00 31 1008.8
20260505092004 77 253 6.0 8.0 0.00 0.00 0.00 34 1007.2
20260505091725 77 256 6.0 9.0 0.00 0.00 0.00 31 1008.7
20260505091504 77 259 6.0 8.0 0.00 0.00 0.00 35 1007.3
20260505091225 77 246 6.0 9.0 0.00 0.00 0.00 31 1008.8
20260505091004 76 242 6.0 8.0 0.00 0.00 0.00 35 1007.5
20260505090725 76 226 6.0 9.0 0.00 0.00 0.00 34 1008.8
20260505090504 76 220 7.0 11.0 0.00 0.00 0.00 35 1007.3
20260505090231 76 244 7.0 10.0 0.00 0.00 0.00 31 1008.9
20260505090005 76 234 8.0 11.0 0.00 0.00 0.00 35 1007.4
20260505085725 76 243 8.0 11.0 0.00 0.00 0.00 34 1009.0
20260505085504 76 246 8.0 11.0 0.00 0.00 0.00 35 1007.4
20260505085225 76 217 7.0 11.0 0.00 0.00 0.00 33 1008.9
20260505085004 75 239 7.0 10.0 0.00 0.00 0.00 35 1007.4
20260505084724 75 261 7.0 11.0 0.00 0.00 0.00 34 1009.0
20260505084504 75 237 7.0 11.0 0.00 0.00 0.00 38 1007.4
20260505084004 74 244 7.0 11.0 0.00 0.00 0.00 38 1007.4
20260505083725 75 230 6.0 10.0 0.00 0.00 0.00 36 1009.1
20260505083504 74 256 6.0 9.0 0.00 0.00 0.00 39 1007.6
20260505083224 74 227 6.0 10.0 0.00 0.00 0.00 37 1009.2
20260505083005 74 225 6.0 10.0 0.00 0.00 0.00 39 1007.6
20260505082725 74 216 6.0 10.0 0.00 0.00 0.00 38 1009.2
20260505082225 73 223 7.0 11.0 0.00 0.00 0.00 37 1009.2
20260505081724 73 230 8.0 11.0 0.00 0.00 0.00 35 1009.4
20260505081224 72 229 6.0 8.0 0.00 0.00 0.00 35 1009.3
20260505081004 73 238 7.0 8.0 0.00 0.00 0.00 37 1007.7
20260505080725 72 226 5.0 7.0 0.00 0.00 0.00 35 1009.4
20260505080230 72 214 5.0 6.0 0.00 0.00 0.00 36 1009.4
20260505080004 72 222 4.0 7.0 0.00 0.00 0.00 39 1007.9
20260505075725 72 219 4.0 6.0 0.00 0.00 0.00 36 1009.5
20260505075504 72 218 5.0 8.0 0.00 0.00 0.00 38 1007.8
20260505075224 72 239 5.0 7.0 0.00 0.00 0.00 36 1009.5
20260505075004 71 220 6.0 8.0 0.00 0.00 0.00 39 1007.7
20260505074725 71 244 5.0 7.0 0.00 0.00 0.00 37 1009.3
20260505074225 71 263 6.0 8.0 0.00 0.00 0.00 36 1009.6
20260505074003 71 265 6.0 8.0 0.00 0.00 0.00 40 1007.9
20260505073725 71 244 6.0 8.0 0.00 0.00 0.00 39 1009.6
20260505073504 70 240 5.0 8.0 0.00 0.00 0.00 42 1008.0
20260505073225 70 218 5.0 8.0 0.00 0.00 0.00 38 1009.6
20260505073004 70 247 5.0 8.0 0.00 0.00 0.00 41 1008.0
20260505072725 69 240 5.0 6.0 0.00 0.00 0.00 42 1009.6
20260505072503 69 254 5.0 6.0 0.00 0.00 0.00 44 1008.1
20260505072225 69 231 5.0 7.0 0.00 0.00 0.00 43 1009.5
20260505072004 69 240 5.0 6.0 0.00 0.00 0.00 44 1008.3
20260505071725 69 221 4.0 7.0 0.00 0.00 0.00 43 1009.7
20260505071504 69 220 4.0 6.0 0.00 0.00 0.00 44 1008.0
20260505071225 68 226 4.0 5.0 0.00 0.00 0.00 43 1009.6
20260505071003 69 216 5.0 7.0 0.00 0.00 0.00 45 1008.0
20260505070724 68 205 5.0 8.0 0.00 0.00 0.00 44 1009.4
20260505070231 67 203 5.0 8.0 0.00 0.00 0.00 43 1009.6
20260505070004 68 207 6.0 8.0 0.00 0.00 0.00 45 1008.1
20260505065725 67 198 6.0 8.0 0.00 0.00 0.00 43 1009.6
20260505065503 68 198 6.0 8.0 0.00 0.00 0.00 44 1008.2
20260505065225 67 194 6.0 8.0 0.00 0.00 0.00 42 1009.9
20260505065004 67 211 6.0 8.0 0.00 0.00 0.00 44 1008.1
20260505064725 67 207 6.0 8.0 0.00 0.00 0.00 41 1009.8
20260505064504 67 239 6.0 8.0 0.00 0.00 0.00 44 1008.1
20260505064224 66 225 5.0 8.0 0.00 0.00 0.00 41 1009.8
20260505064004 67 242 4.0 6.0 0.00 0.00 0.00 45 1008.2
20260505063724 66 223 4.0 6.0 0.00 0.00 0.00 45 1009.8
20260505063504 67 217 4.0 7.0 0.00 0.00 0.00 45 1008.3
20260505062724 65 205 4.0 6.0 0.00 0.00 0.00 45 1009.9
20260505062504 66 213 4.0 6.0 0.00 0.00 0.00 46 1008.3
20260505062225 64 205 3.0 6.0 0.00 0.00 0.00 46 1009.8
20260505062004 66 207 4.0 6.0 0.00 0.00 0.00 48 1008.2
20260505061725 64 211 3.0 5.0 0.00 0.00 0.00 52 1009.7
20260505061504 66 200 3.0 5.0 0.00 0.00 0.00 51 1008.4
20260505061004 66 130 3.0 5.0 0.00 0.00 0.00 52 1008.5
20260505060724 63 184 2.0 3.0 0.00 0.00 0.00 57 1009.9
20260505060231 62 153 2.0 2.0 0.00 0.00 0.00 61 1009.9
20260505060004 66 146 2.0 2.0 0.00 0.00 0.00 58 1008.4
20260505055725 61 139 2.0 3.0 0.00 0.00 0.00 62 1010.1
20260505055504 65 150 2.0 2.0 0.00 0.00 0.00 61 1008.3
20260505055225 61 146 1.0 3.0 0.00 0.00 0.00 63 1010.1
20260505055003 64 153 2.0 2.0 0.00 0.00 0.00 64 1008.3
20260505054725 61 152 1.0 2.0 0.00 0.00 0.00 65 1010.0
20260505054504 63 171 2.0 3.0 0.00 0.00 0.00 65 1008.4
20260505054224 60 169 2.0 3.0 0.00 0.00 0.00 66 1010.0
20260505053724 60 155 2.0 3.0 0.00 0.00 0.00 68 1010.2
20260505053504 62 138 3.0 3.0 0.00 0.00 0.00 72 1008.5
20260505053225 60 118 2.0 3.0 0.00 0.00 0.00 73 1010.1
20260505053004 60 132 3.0 3.0 0.00 0.00 0.00 75 1008.5
20260505052725 60 120 2.0 3.0 0.00 0.00 0.00 73 1010.2
20260505052504 59 134 2.0 4.0 0.00 0.00 0.00 77 1008.4
20260505052225 60 101 2.0 3.0 0.00 0.00 0.00 74 1010.0
20260505052004 58 96 3.0 4.0 0.00 0.00 0.00 81 1008.4
20260505051725 60 70 2.0 4.0 0.00 0.00 0.00 76 1010.0
20260505051504 57 90 3.0 4.0 0.00 0.00 0.00 82 1008.4
20260505051004 56 108 3.0 4.0 0.00 0.00 0.00 85 1008.6
20260505050725 58 108 3.0 4.0 0.00 0.00 0.00 82 1010.1
20260505050504 55 115 3.0 4.0 0.00 0.00 0.00 85 1008.6
20260505050230 57 117 3.0 4.0 0.00 0.00 0.00 85 1010.0
20260505041504 51 0 0.0 0.0 0.00 0.00 0.00 88 1008.5
20260505041124 50 90 0.0 1.0 0.00 0.00 0.00 92 1010.2
20260505041004 51 0 0.0 0.0 0.00 0.00 0.00 88 1008.3
20260505040625 50 86 0.0 1.0 0.00 0.00 0.00 92 1010.0
20260505040504 51 0 0.0 0.0 0.00 0.00 0.00 88 1008.4
20260505040130 50 117 0.0 1.0 0.00 0.00 0.00 93 1010.2
20260505040005 51 0 0.0 0.0 0.00 0.00 0.00 88 1008.3
20260505035624 49 130 0.0 1.0 0.00 0.00 0.00 93 1010.3
20260505035504 50 90 0.0 1.0 0.00 0.00 0.00 88 1008.4
20260505035124 49 130 0.0 2.0 0.00 0.00 0.00 92 1010.1
20260505035004 50 90 0.0 1.0 0.00 0.00 0.00 87 1008.3
20260505034624 49 120 1.0 2.0 0.00 0.00 0.00 91 1010.5
20260505034003 50 128 1.0 3.0 0.00 0.00 0.00 88 1008.5
20260505033624 49 83 1.0 2.0 0.00 0.00 0.00 90 1010.1
20260505033504 50 135 0.0 2.0 0.00 0.00 0.00 86 1008.5
20260505033125 48 90 0.0 1.0 0.00 0.00 0.00 89 1010.3
20260505032624 48 0 0.0 0.0 0.00 0.00 0.00 90 1010.3
20260505032503 50 0 0.0 0.0 0.00 0.00 0.00 86 1008.4
20260505032124 48 0 0.0 0.0 0.00 0.00 0.00 88 1010.2
20260505032004 50 0 0.0 0.0 0.00 0.00 0.00 86 1008.4
20260505031624 49 0 0.0 0.0 0.00 0.00 0.00 88 1010.3
20260505031504 50 0 0.0 0.0 0.00 0.00 0.00 85 1008.4
20260505031125 49 0 0.0 0.0 0.00 0.00 0.00 88 1010.3
20260505031004 50 0 0.0 0.0 0.00 0.00 0.00 85 1008.4
20260505030624 49 135 0.0 1.0 0.00 0.00 0.00 87 1010.4
20260505030130 49 135 0.0 1.0 0.00 0.00 0.00 87 1010.3
20260505025624 50 135 0.0 1.0 0.00 0.00 0.00 87 1010.4
20260505025124 50 135 0.0 1.0 0.00 0.00 0.00 86 1010.5
20260505025004 51 0 0.0 0.0 0.00 0.00 0.00 85 1008.5
20260505024624 50 90 0.0 1.0 0.00 0.00 0.00 87 1010.3
20260505024124 51 108 0.0 1.0 0.00 0.00 0.00 87 1010.2
20260505024004 51 123 0.0 2.0 0.00 0.00 0.00 85 1008.7
20260505023624 51 104 1.0 1.0 0.00 0.00 0.00 87 1010.4
20260505023504 51 104 1.0 2.0 0.00 0.00 0.00 85 1008.7
20260505023124 51 91 1.0 2.0 0.00 0.00 0.00 86 1010.5
20260505023004 51 96 1.0 2.0 0.00 0.00 0.00 84 1008.6
20260505022625 50 90 0.0 2.0 0.00 0.00 0.00 86 1010.7
20260505022504 51 0 0.0 0.0 0.00 0.00 0.00 84 1008.7
20260505022004 51 0 0.0 0.0 0.00 0.00 0.00 84 1008.7
20260505021624 50 0 0.0 0.0 0.00 0.00 0.00 85 1010.3
20260505021504 51 0 0.0 0.0 0.00 0.00 0.00 84 1008.8
20260505021004 51 0 0.0 0.0 0.00 0.00 0.00 83 1008.8
20260505020624 51 0 0.0 0.0 0.00 0.00 0.00 84 1010.4
20260505020130 51 0 0.0 0.0 0.00 0.00 0.00 84 1010.6
20260505020004 52 0 0.0 0.0 0.00 0.00 0.00 83 1008.8
20260505015624 51 0 0.0 0.0 0.00 0.00 0.00 83 1010.6
20260505015504 52 0 0.0 0.0 0.00 0.00 0.00 82 1009.0
20260505015125 51 55 0.0 2.0 0.00 0.00 0.00 83 1010.7
20260505015004 52 0 0.0 0.0 0.00 0.00 0.00 82 1008.9
20260505014625 52 52 0.0 2.0 0.00 0.00 0.00 83 1010.7
20260505014504 53 0 0.0 0.0 0.00 0.00 0.00 82 1008.9
20260505014124 52 45 0.0 1.0 0.00 0.00 0.00 82 1010.6
20260505014004 53 0 0.0 0.0 0.00 0.00 0.00 82 1008.9
20260505013624 52 135 0.0 1.0 0.00 0.00 0.00 82 1010.5
20260505013504 53 135 0.0 1.0 0.00 0.00 0.00 82 1008.9
20260505013003 53 138 1.0 2.0 0.00 0.00 0.00 82 1008.9
20260505012624 53 142 1.0 2.0 0.00 0.00 0.00 83 1010.5
20260505012504 53 144 1.0 2.0 0.00 0.00 0.00 82 1008.8
20260505012124 52 150 0.0 1.0 0.00 0.00 0.00 83 1010.6
20260505012004 53 151 1.0 2.0 0.00 0.00 0.00 82 1008.9
20260505011624 52 157 0.0 2.0 0.00 0.00 0.00 83 1010.7
20260505011124 52 136 0.0 2.0 0.00 0.00 0.00 83 1010.7
20260505010625 52 102 0.0 1.0 0.00 0.00 0.00 83 1010.8
20260505010505 53 135 1.0 2.0 0.00 0.00 0.00 82 1009.1
20260505010005 53 162 1.0 2.0 0.00 0.00 0.00 82 1009.0
20260505005624 52 165 1.0 4.0 0.00 0.00 0.00 83 1010.7
20260505005504 53 165 1.0 4.0 0.00 0.00 0.00 82 1009.0
20260505004624 52 152 1.0 4.0 0.00 0.00 0.00 82 1011.0
20260505004504 53 120 1.0 2.0 0.00 0.00 0.00 81 1009.2
20260505004004 53 101 1.0 2.0 0.00 0.00 0.00 80 1009.1
20260505003624 52 89 1.0 2.0 0.00 0.00 0.00 82 1010.8
20260505003504 53 66 1.0 2.0 0.00 0.00 0.00 80 1009.1
20260505003124 52 80 1.0 2.0 0.00 0.00 0.00 82 1010.9
20260505003003 53 73 1.0 2.0 0.00 0.00 0.00 80 1009.1
20260505002124 53 181 0.0 1.0 0.00 0.00 0.00 82 1011.0
20260505001625 53 167 0.0 1.0 0.00 0.00 0.00 82 1011.0
20260505001503 54 174 1.0 2.0 0.00 0.00 0.00 79 1009.5
20260505001125 53 160 0.0 1.0 0.00 0.00 0.00 82 1011.0
20260505001004 54 174 1.0 2.0 0.00 0.00 0.00 79 1009.3
20260505000624 53 135 0.0 2.0 0.00 0.00 0.00 81 1011.3
20260505000504 54 170 1.0 2.0 0.00 0.00 0.00 79 1009.4
20260505000130 53 135 0.0 2.0 0.00 0.00 0.00 81 1011.1
20260505000004 54 147 1.0 2.0 0.00 0.00 0.00 79 1009.4
20260504235624 53 135 0.0 1.0 0.00 0.00 0.00 81 1011.2
20260504235504 54 135 0.0 1.0 0.00 0.00 0.00 78 1009.4
20260504235124 53 181 0.0 1.0 0.00 0.00 0.00 81 1011.2
20260504234625 53 173 1.0 2.0 0.00 0.00 0.00 81 1011.1
20260504234503 54 181 1.0 2.0 0.00 0.00 0.00 78 1009.5
20260504234124 53 175 1.0 2.0 0.00 0.00 0.00 80 1011.3
20260504234004 54 181 1.0 2.0 0.00 0.00 0.00 77 1009.5
20260504233625 53 177 0.0 1.0 0.00 0.00 0.00 79 1011.3
20260504233504 54 182 1.0 2.0 0.00 0.00 0.00 77 1009.6
20260504233124 53 166 0.0 1.0 0.00 0.00 0.00 78 1011.4
20260504233003 54 196 1.0 2.0 0.00 0.00 0.00 76 1009.5
20260504232625 53 0 0.0 0.0 0.00 0.00 0.00 77 1011.0
20260504232504 54 198 1.0 2.0 0.00 0.00 0.00 75 1009.5
20260504232124 53 0 0.0 0.0 0.00 0.00 0.00 76 1011.1
20260504231624 53 0 0.0 0.0 0.00 0.00 0.00 75 1011.4
20260504231504 54 0 0.0 0.0 0.00 0.00 0.00 74 1009.6
20260504231124 54 0 0.0 0.0 0.00 0.00 0.00 74 1011.3
20260504231004 55 1 0.0 1.0 0.00 0.00 0.00 74 1009.8
20260504230625 55 0 0.0 0.0 0.00 0.00 0.00 75 1011.4
20260504230130 55 0 0.0 0.0 0.00 0.00 0.00 75 1011.4
20260504230004 56 354 1.0 2.0 0.00 0.00 0.00 73 1009.8
20260504225625 54 0 0.0 0.0 0.00 0.00 0.00 74 1011.6
20260504225504 56 0 0.0 0.0 0.00 0.00 0.00 72 1009.7
20260504225124 55 0 0.0 0.0 0.00 0.00 0.00 73 1011.4
20260504225004 56 181 0.0 1.0 0.00 0.00 0.00 72 1009.9
20260504224624 55 0 0.0 0.0 0.00 0.00 0.00 73 1011.5
20260504224125 56 0 0.0 0.0 0.00 0.00 0.00 72 1011.4
20260504224004 57 270 0.0 1.0 0.00 0.00 0.00 70 1009.8
20260504223624 56 0 0.0 0.0 0.00 0.00 0.00 71 1011.6
20260504223504 57 255 1.0 2.0 0.00 0.00 0.00 70 1010.0
20260504223124 56 218 0.0 2.0 0.00 0.00 0.00 71 1011.5
20260504223003 57 233 1.0 2.0 0.00 0.00 0.00 69 1010.0
20260504222624 57 182 0.0 2.0 0.00 0.00 0.00 71 1011.8
20260504222504 58 225 0.0 2.0 0.00 0.00 0.00 69 1010.1
20260504222124 57 135 0.0 1.0 0.00 0.00 0.00 71 1011.7
20260504222004 58 0 0.0 0.0 0.00 0.00 0.00 69 1010.0
20260504221625 57 154 0.0 1.0 0.00 0.00 0.00 70 1011.6
20260504221125 57 209 0.0 1.0 0.00 0.00 0.00 69 1011.7
20260504221004 58 225 1.0 2.0 0.00 0.00 0.00 67 1009.9
20260504220625 57 225 0.0 1.0 0.00 0.00 0.00 68 1011.6
20260504220504 59 225 1.0 2.0 0.00 0.00 0.00 67 1009.9
20260504220131 58 208 0.0 1.0 0.00 0.00 0.00 67 1011.7
20260504220004 59 225 0.0 2.0 0.00 0.00 0.00 67 1009.9
20260504215504 59 225 0.0 1.0 0.00 0.00 0.00 65 1009.9
20260504215125 59 181 0.0 1.0 0.00 0.00 0.00 66 1011.7
20260504214624 59 181 0.0 2.0 0.00 0.00 0.00 65 1011.7
20260504214504 60 200 1.0 2.0 0.00 0.00 0.00 65 1010.1
20260504214124 59 154 1.0 2.0 0.00 0.00 0.00 65 1011.7
20260504213124 59 235 2.0 4.0 0.00 0.00 0.00 65 1011.7
20260504212504 60 181 2.0 4.0 0.00 0.00 0.00 64 1010.0
20260504212125 59 181 0.0 1.0 0.00 0.00 0.00 64 1011.6
20260504212003 60 181 1.0 2.0 0.00 0.00 0.00 63 1010.0
20260504211624 60 0 0.0 0.0 0.00 0.00 0.00 63 1011.5
20260504211504 60 181 1.0 2.0 0.00 0.00 0.00 63 1009.8
20260504211124 60 0 0.0 0.0 0.00 0.00 0.00 63 1011.7
20260504211003 61 0 0.0 0.0 0.00 0.00 0.00 62 1010.0
20260504210625 61 0 0.0 0.0 0.00 0.00 0.00 63 1011.4
20260504210504 61 181 0.0 2.0 0.00 0.00 0.00 62 1010.1
20260504210130 61 0 0.0 0.0 0.00 0.00 0.00 61 1011.4
20260504210005 61 181 0.0 2.0 0.00 0.00 0.00 61 1009.8
20260504205624 61 179 0.0 1.0 0.00 0.00 0.00 61 1011.3
20260504205504 62 195 1.0 2.0 0.00 0.00 0.00 61 1009.9
20260504205124 61 241 0.0 1.0 0.00 0.00 0.00 61 1011.5
20260504205004 62 213 1.0 2.0 0.00 0.00 0.00 60 1009.9
20260504204624 62 212 0.0 2.0 0.00 0.00 0.00 60 1011.5
20260504204504 62 202 1.0 2.0 0.00 0.00 0.00 60 1010.0
20260504204124 62 151 0.0 2.0 0.00 0.00 0.00 59 1011.6
20260504204004 62 314 1.0 2.0 0.00 0.00 0.00 59 1010.1
20260504203625 62 285 2.0 4.0 0.00 0.00 0.00 59 1011.5
20260504203503 63 330 3.0 5.0 0.00 0.00 0.00 58 1010.0
20260504203124 62 311 3.0 4.0 0.00 0.00 0.00 59 1011.6
20260504203004 63 332 3.0 5.0 0.00 0.00 0.00 58 1010.0
20260504202503 63 339 3.0 4.0 0.00 0.00 0.00 57 1010.1
20260504202125 63 356 1.0 3.0 0.00 0.00 0.00 55 1011.3
20260504202004 63 329 2.0 3.0 0.00 0.00 0.00 56 1009.8
20260504201504 64 214 1.0 2.0 0.00 0.00 0.00 55 1009.9
20260504201124 65 190 2.0 2.0 0.00 0.00 0.00 55 1011.4
20260504200624 65 181 2.0 3.0 0.00 0.00 0.00 54 1011.3
20260504200503 65 185 2.0 3.0 0.00 0.00 0.00 55 1009.8
20260504200130 65 183 2.0 3.0 0.00 0.00 0.00 54 1011.5
20260504195624 65 184 2.0 2.0 0.00 0.00 0.00 54 1011.4
20260504195503 65 187 2.0 3.0 0.00 0.00 0.00 55 1009.8
20260504195125 65 190 2.0 2.0 0.00 0.00 0.00 55 1011.4
20260504195004 65 205 2.0 2.0 0.00 0.00 0.00 55 1009.7
20260504194625 65 199 2.0 2.0 0.00 0.00 0.00 55 1011.4
20260504194503 65 216 2.0 2.0 0.00 0.00 0.00 55 1009.8
20260504194004 65 214 2.0 2.0 0.00 0.00 0.00 56 1009.8
20260504193624 65 208 2.0 3.0 0.00 0.00 0.00 55 1011.3
20260504193503 65 211 3.0 4.0 0.00 0.00 0.00 56 1009.7
20260504193125 64 201 2.0 3.0 0.00 0.00 0.00 55 1011.3
20260504193004 65 201 3.0 6.0 0.00 0.00 0.00 56 1009.7
20260504192625 64 192 3.0 6.0 0.00 0.00 0.00 56 1011.2
20260504192504 64 192 3.0 6.0 0.00 0.00 0.00 56 1009.8
20260504192124 64 186 3.0 6.0 0.00 0.00 0.00 57 1011.3
20260504192004 64 184 3.0 4.0 0.00 0.00 0.00 56 1009.8
20260504191624 64 175 2.0 3.0 0.00 0.00 0.00 56 1011.5
20260504191503 64 175 2.0 3.0 0.00 0.00 0.00 56 1009.7
20260504191125 63 170 2.0 3.0 0.00 0.00 0.00 56 1011.4
20260504191004 64 170 2.0 3.0 0.00 0.00 0.00 56 1009.6
20260504190624 64 165 1.0 2.0 0.00 0.00 0.00 56 1011.5
20260504190504 65 176 1.0 2.0 0.00 0.00 0.00 55 1009.6
20260504190130 64 168 0.0 1.0 0.00 0.00 0.00 55 1011.3
20260504190004 65 181 1.0 2.0 0.00 0.00 0.00 55 1009.6
20260504184504 67 165 1.0 2.0 0.00 0.00 0.00 51 1009.6
20260504184124 66 170 0.0 1.0 0.00 0.00 0.00 51 1011.4
20260504184004 67 174 1.0 2.0 0.00 0.00 0.00 50 1009.6
20260504183625 67 152 0.0 1.0 0.00 0.00 0.00 51 1011.1
20260504183504 68 181 0.0 1.0 0.00 0.00 0.00 48 1009.4
20260504183124 67 135 0.0 1.0 0.00 0.00 0.00 50 1011.2
20260504183004 68 149 0.0 2.0 0.00 0.00 0.00 48 1009.6
20260504182625 67 135 0.0 1.0 0.00 0.00 0.00 49 1011.2
20260504182504 69 140 1.0 2.0 0.00 0.00 0.00 48 1009.4
20260504182124 68 139 1.0 2.0 0.00 0.00 0.00 48 1011.2
20260504181624 68 140 1.0 2.0 0.00 0.00 0.00 46 1011.2
20260504181504 69 142 1.0 2.0 0.00 0.00 0.00 46 1009.4
20260504181125 69 135 0.0 1.0 0.00 0.00 0.00 45 1011.1
20260504181004 70 255 1.0 1.0 0.00 0.00 0.00 45 1009.5
20260504180624 71 270 0.0 1.0 0.00 0.00 0.00 43 1011.0
20260504180504 72 270 1.0 2.0 0.00 0.00 0.00 41 1009.4
20260504180130 71 270 0.0 2.0 0.00 0.00 0.00 43 1010.9
20260504180004 72 241 1.0 2.0 0.00 0.00 0.00 41 1009.3
20260504175624 72 234 0.0 2.0 0.00 0.00 0.00 41 1011.1
20260504175504 73 189 1.0 2.0 0.00 0.00 0.00 40 1009.3
20260504175125 72 181 0.0 1.0 0.00 0.00 0.00 40 1011.0
20260504175003 74 181 1.0 2.0 0.00 0.00 0.00 39 1009.4
20260504174625 73 186 1.0 2.0 0.00 0.00 0.00 39 1011.1
20260504174504 74 181 1.0 2.0 0.00 0.00 0.00 39 1009.3
20260504174125 73 186 1.0 2.0 0.00 0.00 0.00 38 1010.9
20260504174004 75 196 1.0 2.0 0.00 0.00 0.00 38 1009.0
20260504173624 74 181 0.0 1.0 0.00 0.00 0.00 37 1011.1
20260504173124 74 225 0.0 2.0 0.00 0.00 0.00 37 1011.0
20260504173003 75 225 1.0 2.0 0.00 0.00 0.00 36 1009.1
20260504172003 76 225 3.0 4.0 0.00 0.00 0.00 36 1009.3
20260504171625 75 216 3.0 4.0 0.00 0.00 0.00 36 1010.8
20260504171504 76 215 3.0 4.0 0.00 0.00 0.00 35 1009.2
20260504171004 76 217 4.0 5.0 0.00 0.00 0.00 35 1009.1
20260504170625 76 224 4.0 5.0 0.00 0.00 0.00 34 1010.8
20260504170504 77 225 4.0 6.0 0.00 0.00 0.00 35 1009.3
20260504170130 76 222 4.0 5.0 0.00 0.00 0.00 34 1011.0
20260504160130 77 231 7.0 11.0 0.00 0.00 0.00 29 1010.8
20260504151125 78 256 7.0 11.0 0.00 0.00 0.00 30 1011.5
20260504151004 78 226 8.0 11.0 0.00 0.00 0.00 33 1009.6
20260504150625 78 273 10.0 13.0 0.00 0.00 0.00 30 1011.3
20260504150503 78 235 9.0 11.0 0.00 0.00 0.00 33 1009.6
20260504150130 78 256 10.0 13.0 0.00 0.00 0.00 31 1011.5
20260504141003 79 186 9.0 13.0 0.00 0.00 0.00 32 1009.9
20260504140624 79 204 7.0 13.0 0.00 0.00 0.00 31 1011.5
20260504140130 79 219 7.0 8.0 0.00 0.00 0.00 32 1011.8
20260504130624 78 234 9.0 13.0 0.00 0.00 0.00 30 1012.1
20260504130503 78 232 8.0 11.0 0.00 0.00 0.00 34 1010.6
20260504130132 78 255 8.0 11.0 0.00 0.00 0.00 32 1012.2